Data supplied by UK-AIR on 5/4/2008
All Data GMT hour ending 
Status: R =Ratified P=Provisional,P*=As supplied
,,Yarner Wood,,,,,,,,,,,,,,,,,,,,,,,
Date,time,"Ozone",status,unit
 
01-01-1993,01:00,32,R,ugm-3
01-01-1993,02:00,32,R,ugm-3
01-01-1993,03:00,32,R,ugm-3
01-01-1993,04:00,28,R,ugm-3
01-01-1993,05:00,28,R,ugm-3
01-01-1993,06:00,30,R,ugm-3
01-01-1993,07:00,26,R,ugm-3
01-01-1993,08:00,26,R,ugm-3
01-01-1993,09:00,30,R,ugm-3
01-01-1993,10:00,26,R,ugm-3
01-01-1993,11:00,28,R,ugm-3
01-01-1993,12:00,32,R,ugm-3
01-01-1993,13:00,42,R,ugm-3
01-01-1993,14:00,,,
01-01-1993,15:00,28,R,ugm-3
01-01-1993,16:00,20,R,ugm-3
01-01-1993,17:00,8,R,ugm-3
01-01-1993,18:00,6,R,ugm-3
01-01-1993,19:00,18,R,ugm-3
01-01-1993,20:00,16,R,ugm-3
01-01-1993,21:00,10,R,ugm-3
01-01-1993,22:00,12,R,ugm-3
01-01-1993,23:00,16,R,ugm-3
01-01-1993,24:00,20,R,ugm-3
02-01-1993,01:00,18,R,ugm-3
02-01-1993,02:00,18,R,ugm-3
02-01-1993,03:00,16,R,ugm-3
02-01-1993,04:00,20,R,ugm-3
02-01-1993,05:00,26,R,ugm-3
02-01-1993,06:00,22,R,ugm-3
02-01-1993,07:00,20,R,ugm-3
02-01-1993,08:00,14,R,ugm-3
02-01-1993,09:00,10,R,ugm-3
02-01-1993,10:00,10,R,ugm-3
02-01-1993,11:00,12,R,ugm-3
02-01-1993,12:00,8,R,ugm-3
02-01-1993,13:00,6,R,ugm-3
02-01-1993,14:00,,,
02-01-1993,15:00,12,R,ugm-3
02-01-1993,16:00,18,R,ugm-3
02-01-1993,17:00,18,R,ugm-3
02-01-1993,18:00,14,R,ugm-3
02-01-1993,19:00,10,R,ugm-3
02-01-1993,20:00,10,R,ugm-3
02-01-1993,21:00,10,R,ugm-3
02-01-1993,22:00,12,R,ugm-3
02-01-1993,23:00,8,R,ugm-3
02-01-1993,24:00,8,R,ugm-3
03-01-1993,01:00,12,R,ugm-3
03-01-1993,02:00,12,R,ugm-3
03-01-1993,03:00,14,R,ugm-3
03-01-1993,04:00,14,R,ugm-3
03-01-1993,05:00,16,R,ugm-3
03-01-1993,06:00,16,R,ugm-3
03-01-1993,07:00,24,R,ugm-3
03-01-1993,08:00,26,R,ugm-3
03-01-1993,09:00,28,R,ugm-3
03-01-1993,10:00,30,R,ugm-3
03-01-1993,11:00,34,R,ugm-3
03-01-1993,12:00,36,R,ugm-3
03-01-1993,13:00,42,R,ugm-3
03-01-1993,14:00,,,
03-01-1993,15:00,48,R,ugm-3
03-01-1993,16:00,46,R,ugm-3
03-01-1993,17:00,48,R,ugm-3
03-01-1993,18:00,46,R,ugm-3
03-01-1993,19:00,52,R,ugm-3
03-01-1993,20:00,52,R,ugm-3
03-01-1993,21:00,52,R,ugm-3
03-01-1993,22:00,48,R,ugm-3
03-01-1993,23:00,48,R,ugm-3
03-01-1993,24:00,46,R,ugm-3
04-01-1993,01:00,48,R,ugm-3
04-01-1993,02:00,48,R,ugm-3
04-01-1993,03:00,48,R,ugm-3
04-01-1993,04:00,46,R,ugm-3
04-01-1993,05:00,44,R,ugm-3
04-01-1993,06:00,44,R,ugm-3
04-01-1993,07:00,42,R,ugm-3
04-01-1993,08:00,56,R,ugm-3
04-01-1993,09:00,56,R,ugm-3
04-01-1993,10:00,52,R,ugm-3
04-01-1993,11:00,42,R,ugm-3
04-01-1993,12:00,44,R,ugm-3
04-01-1993,13:00,54,R,ugm-3
04-01-1993,14:00,,,
04-01-1993,15:00,42,R,ugm-3
04-01-1993,16:00,28,R,ugm-3
04-01-1993,17:00,32,R,ugm-3
04-01-1993,18:00,34,R,ugm-3
04-01-1993,19:00,18,R,ugm-3
04-01-1993,20:00,6,R,ugm-3
04-01-1993,21:00,6,R,ugm-3
04-01-1993,22:00,10,R,ugm-3
04-01-1993,23:00,22,R,ugm-3
04-01-1993,24:00,28,R,ugm-3
05-01-1993,01:00,26,R,ugm-3
05-01-1993,02:00,56,R,ugm-3
05-01-1993,03:00,56,R,ugm-3
05-01-1993,04:00,56,R,ugm-3
05-01-1993,05:00,52,R,ugm-3
05-01-1993,06:00,48,R,ugm-3
05-01-1993,07:00,48,R,ugm-3
05-01-1993,08:00,48,R,ugm-3
05-01-1993,09:00,48,R,ugm-3
05-01-1993,10:00,46,R,ugm-3
05-01-1993,11:00,44,R,ugm-3
05-01-1993,12:00,44,R,ugm-3
05-01-1993,13:00,44,R,ugm-3
05-01-1993,14:00,,,
05-01-1993,15:00,44,R,ugm-3
05-01-1993,16:00,42,R,ugm-3
05-01-1993,17:00,44,R,ugm-3
05-01-1993,18:00,48,R,ugm-3
05-01-1993,19:00,52,R,ugm-3
05-01-1993,20:00,54,R,ugm-3
05-01-1993,21:00,58,R,ugm-3
05-01-1993,22:00,58,R,ugm-3
05-01-1993,23:00,60,R,ugm-3
05-01-1993,24:00,60,R,ugm-3
06-01-1993,01:00,64,R,ugm-3
06-01-1993,02:00,66,R,ugm-3
06-01-1993,03:00,64,R,ugm-3
06-01-1993,04:00,64,R,ugm-3
06-01-1993,05:00,64,R,ugm-3
06-01-1993,06:00,66,R,ugm-3
06-01-1993,07:00,68,R,ugm-3
06-01-1993,08:00,70,R,ugm-3
06-01-1993,09:00,68,R,ugm-3
06-01-1993,10:00,66,R,ugm-3
06-01-1993,11:00,62,R,ugm-3
06-01-1993,12:00,58,R,ugm-3
06-01-1993,13:00,52,R,ugm-3
06-01-1993,14:00,,,
06-01-1993,15:00,46,R,ugm-3
06-01-1993,16:00,46,R,ugm-3
06-01-1993,17:00,60,R,ugm-3
06-01-1993,18:00,66,R,ugm-3
06-01-1993,19:00,68,R,ugm-3
06-01-1993,20:00,64,R,ugm-3
06-01-1993,21:00,60,R,ugm-3
06-01-1993,22:00,58,R,ugm-3
06-01-1993,23:00,58,R,ugm-3
06-01-1993,24:00,56,R,ugm-3
07-01-1993,01:00,50,R,ugm-3
07-01-1993,02:00,54,R,ugm-3
07-01-1993,03:00,50,R,ugm-3
07-01-1993,04:00,40,R,ugm-3
07-01-1993,05:00,42,R,ugm-3
07-01-1993,06:00,40,R,ugm-3
07-01-1993,07:00,34,R,ugm-3
07-01-1993,08:00,34,R,ugm-3
07-01-1993,09:00,64,R,ugm-3
07-01-1993,10:00,42,R,ugm-3
07-01-1993,11:00,38,R,ugm-3
07-01-1993,12:00,30,R,ugm-3
07-01-1993,13:00,54,R,ugm-3
07-01-1993,14:00,,,
07-01-1993,15:00,66,R,ugm-3
07-01-1993,16:00,64,R,ugm-3
07-01-1993,17:00,60,R,ugm-3
07-01-1993,18:00,66,R,ugm-3
07-01-1993,19:00,66,R,ugm-3
07-01-1993,20:00,68,R,ugm-3
07-01-1993,21:00,68,R,ugm-3
07-01-1993,22:00,66,R,ugm-3
07-01-1993,23:00,58,R,ugm-3
07-01-1993,24:00,56,R,ugm-3
08-01-1993,01:00,62,R,ugm-3
08-01-1993,02:00,60,R,ugm-3
08-01-1993,03:00,56,R,ugm-3
08-01-1993,04:00,56,R,ugm-3
08-01-1993,05:00,58,R,ugm-3
08-01-1993,06:00,56,R,ugm-3
08-01-1993,07:00,56,R,ugm-3
08-01-1993,08:00,44,R,ugm-3
08-01-1993,09:00,46,R,ugm-3
08-01-1993,10:00,42,R,ugm-3
08-01-1993,11:00,36,R,ugm-3
08-01-1993,12:00,32,R,ugm-3
08-01-1993,13:00,8,R,ugm-3
08-01-1993,14:00,,,
08-01-1993,15:00,62,R,ugm-3
08-01-1993,16:00,52,R,ugm-3
08-01-1993,17:00,42,R,ugm-3
08-01-1993,18:00,46,R,ugm-3
08-01-1993,19:00,56,R,ugm-3
08-01-1993,20:00,60,R,ugm-3
08-01-1993,21:00,62,R,ugm-3
08-01-1993,22:00,62,R,ugm-3
08-01-1993,23:00,58,R,ugm-3
08-01-1993,24:00,50,R,ugm-3
09-01-1993,01:00,50,R,ugm-3
09-01-1993,02:00,72,R,ugm-3
09-01-1993,03:00,72,R,ugm-3
09-01-1993,04:00,74,R,ugm-3
09-01-1993,05:00,74,R,ugm-3
09-01-1993,06:00,72,R,ugm-3
09-01-1993,07:00,70,R,ugm-3
09-01-1993,08:00,70,R,ugm-3
09-01-1993,09:00,70,R,ugm-3
09-01-1993,10:00,70,R,ugm-3
09-01-1993,11:00,68,R,ugm-3
09-01-1993,12:00,68,R,ugm-3
09-01-1993,13:00,64,R,ugm-3
09-01-1993,14:00,,,
09-01-1993,15:00,66,R,ugm-3
09-01-1993,16:00,66,R,ugm-3
09-01-1993,17:00,64,R,ugm-3
09-01-1993,18:00,64,R,ugm-3
09-01-1993,19:00,66,R,ugm-3
09-01-1993,20:00,64,R,ugm-3
09-01-1993,21:00,64,R,ugm-3
09-01-1993,22:00,60,R,ugm-3
09-01-1993,23:00,60,R,ugm-3
09-01-1993,24:00,66,R,ugm-3
10-01-1993,01:00,64,R,ugm-3
10-01-1993,02:00,68,R,ugm-3
10-01-1993,03:00,68,R,ugm-3
10-01-1993,04:00,68,R,ugm-3
10-01-1993,05:00,68,R,ugm-3
10-01-1993,06:00,74,R,ugm-3
10-01-1993,07:00,78,R,ugm-3
10-01-1993,08:00,72,R,ugm-3
10-01-1993,09:00,74,R,ugm-3
10-01-1993,10:00,74,R,ugm-3
10-01-1993,11:00,72,R,ugm-3
10-01-1993,12:00,72,R,ugm-3
10-01-1993,13:00,68,R,ugm-3
10-01-1993,14:00,,,
10-01-1993,15:00,66,R,ugm-3
10-01-1993,16:00,66,R,ugm-3
10-01-1993,17:00,68,R,ugm-3
10-01-1993,18:00,68,R,ugm-3
10-01-1993,19:00,68,R,ugm-3
10-01-1993,20:00,68,R,ugm-3
10-01-1993,21:00,68,R,ugm-3
10-01-1993,22:00,68,R,ugm-3
10-01-1993,23:00,66,R,ugm-3
10-01-1993,24:00,66,R,ugm-3
11-01-1993,01:00,70,R,ugm-3
11-01-1993,02:00,72,R,ugm-3
11-01-1993,03:00,72,R,ugm-3
11-01-1993,04:00,72,R,ugm-3
11-01-1993,05:00,72,R,ugm-3
11-01-1993,06:00,74,R,ugm-3
11-01-1993,07:00,74,R,ugm-3
11-01-1993,08:00,74,R,ugm-3
11-01-1993,09:00,72,R,ugm-3
11-01-1993,10:00,74,R,ugm-3
11-01-1993,11:00,70,R,ugm-3
11-01-1993,12:00,70,R,ugm-3
11-01-1993,13:00,68,R,ugm-3
11-01-1993,14:00,,,
11-01-1993,15:00,72,R,ugm-3
11-01-1993,16:00,68,R,ugm-3
11-01-1993,17:00,68,R,ugm-3
11-01-1993,18:00,68,R,ugm-3
11-01-1993,19:00,66,R,ugm-3
11-01-1993,20:00,66,R,ugm-3
11-01-1993,21:00,68,R,ugm-3
11-01-1993,22:00,68,R,ugm-3
11-01-1993,23:00,66,R,ugm-3
11-01-1993,24:00,68,R,ugm-3
12-01-1993,01:00,68,R,ugm-3
12-01-1993,02:00,68,R,ugm-3
12-01-1993,03:00,70,R,ugm-3
12-01-1993,04:00,70,R,ugm-3
12-01-1993,05:00,72,R,ugm-3
12-01-1993,06:00,68,R,ugm-3
12-01-1993,07:00,68,R,ugm-3
12-01-1993,08:00,70,R,ugm-3
12-01-1993,09:00,72,R,ugm-3
12-01-1993,10:00,70,R,ugm-3
12-01-1993,11:00,70,R,ugm-3
12-01-1993,12:00,70,R,ugm-3
12-01-1993,13:00,70,R,ugm-3
12-01-1993,14:00,,,
12-01-1993,15:00,70,R,ugm-3
12-01-1993,16:00,72,R,ugm-3
12-01-1993,17:00,70,R,ugm-3
12-01-1993,18:00,70,R,ugm-3
12-01-1993,19:00,70,R,ugm-3
12-01-1993,20:00,72,R,ugm-3
12-01-1993,21:00,72,R,ugm-3
12-01-1993,22:00,72,R,ugm-3
12-01-1993,23:00,72,R,ugm-3
12-01-1993,24:00,72,R,ugm-3
13-01-1993,01:00,72,R,ugm-3
13-01-1993,02:00,72,R,ugm-3
13-01-1993,03:00,72,R,ugm-3
13-01-1993,04:00,70,R,ugm-3
13-01-1993,05:00,68,R,ugm-3
13-01-1993,06:00,70,R,ugm-3
13-01-1993,07:00,70,R,ugm-3
13-01-1993,08:00,68,R,ugm-3
13-01-1993,09:00,66,R,ugm-3
13-01-1993,10:00,44,R,ugm-3
13-01-1993,11:00,46,R,ugm-3
13-01-1993,12:00,62,R,ugm-3
13-01-1993,13:00,62,R,ugm-3
13-01-1993,14:00,,,
13-01-1993,15:00,66,R,ugm-3
13-01-1993,16:00,72,R,ugm-3
13-01-1993,17:00,72,R,ugm-3
13-01-1993,18:00,70,R,ugm-3
13-01-1993,19:00,72,R,ugm-3
13-01-1993,20:00,70,R,ugm-3
13-01-1993,21:00,68,R,ugm-3
13-01-1993,22:00,68,R,ugm-3
13-01-1993,23:00,66,R,ugm-3
13-01-1993,24:00,66,R,ugm-3
14-01-1993,01:00,70,R,ugm-3
14-01-1993,02:00,72,R,ugm-3
14-01-1993,03:00,68,R,ugm-3
14-01-1993,04:00,68,R,ugm-3
14-01-1993,05:00,66,R,ugm-3
14-01-1993,06:00,66,R,ugm-3
14-01-1993,07:00,66,R,ugm-3
14-01-1993,08:00,62,R,ugm-3
14-01-1993,09:00,62,R,ugm-3
14-01-1993,10:00,34,R,ugm-3
14-01-1993,11:00,20,R,ugm-3
14-01-1993,12:00,52,R,ugm-3
14-01-1993,13:00,58,R,ugm-3
14-01-1993,14:00,,,
14-01-1993,15:00,66,R,ugm-3
14-01-1993,16:00,62,R,ugm-3
14-01-1993,17:00,60,R,ugm-3
14-01-1993,18:00,64,R,ugm-3
14-01-1993,19:00,68,R,ugm-3
14-01-1993,20:00,66,R,ugm-3
14-01-1993,21:00,66,R,ugm-3
14-01-1993,22:00,64,R,ugm-3
14-01-1993,23:00,66,R,ugm-3
14-01-1993,24:00,68,R,ugm-3
15-01-1993,01:00,68,R,ugm-3
15-01-1993,02:00,68,R,ugm-3
15-01-1993,03:00,70,R,ugm-3
15-01-1993,04:00,70,R,ugm-3
15-01-1993,05:00,70,R,ugm-3
15-01-1993,06:00,68,R,ugm-3
15-01-1993,07:00,68,R,ugm-3
15-01-1993,08:00,68,R,ugm-3
15-01-1993,09:00,70,R,ugm-3
15-01-1993,10:00,70,R,ugm-3
15-01-1993,11:00,70,R,ugm-3
15-01-1993,12:00,68,R,ugm-3
15-01-1993,13:00,70,R,ugm-3
15-01-1993,14:00,,,
15-01-1993,15:00,70,R,ugm-3
15-01-1993,16:00,68,R,ugm-3
15-01-1993,17:00,68,R,ugm-3
15-01-1993,18:00,66,R,ugm-3
15-01-1993,19:00,66,R,ugm-3
15-01-1993,20:00,68,R,ugm-3
15-01-1993,21:00,66,R,ugm-3
15-01-1993,22:00,68,R,ugm-3
15-01-1993,23:00,70,R,ugm-3
15-01-1993,24:00,72,R,ugm-3
16-01-1993,01:00,74,R,ugm-3
16-01-1993,02:00,74,R,ugm-3
16-01-1993,03:00,72,R,ugm-3
16-01-1993,04:00,72,R,ugm-3
16-01-1993,05:00,72,R,ugm-3
16-01-1993,06:00,70,R,ugm-3
16-01-1993,07:00,70,R,ugm-3
16-01-1993,08:00,70,R,ugm-3
16-01-1993,09:00,68,R,ugm-3
16-01-1993,10:00,72,R,ugm-3
16-01-1993,11:00,74,R,ugm-3
16-01-1993,12:00,74,R,ugm-3
16-01-1993,13:00,72,R,ugm-3
16-01-1993,14:00,,,
16-01-1993,15:00,72,R,ugm-3
16-01-1993,16:00,72,R,ugm-3
16-01-1993,17:00,72,R,ugm-3
16-01-1993,18:00,72,R,ugm-3
16-01-1993,19:00,70,R,ugm-3
16-01-1993,20:00,68,R,ugm-3
16-01-1993,21:00,66,R,ugm-3
16-01-1993,22:00,70,R,ugm-3
16-01-1993,23:00,78,R,ugm-3
16-01-1993,24:00,80,R,ugm-3
17-01-1993,01:00,74,R,ugm-3
17-01-1993,02:00,76,R,ugm-3
17-01-1993,03:00,78,R,ugm-3
17-01-1993,04:00,74,R,ugm-3
17-01-1993,05:00,70,R,ugm-3
17-01-1993,06:00,70,R,ugm-3
17-01-1993,07:00,68,R,ugm-3
17-01-1993,08:00,70,R,ugm-3
17-01-1993,09:00,70,R,ugm-3
17-01-1993,10:00,68,R,ugm-3
17-01-1993,11:00,68,R,ugm-3
17-01-1993,12:00,70,R,ugm-3
17-01-1993,13:00,70,R,ugm-3
17-01-1993,14:00,,,
17-01-1993,15:00,68,R,ugm-3
17-01-1993,16:00,66,R,ugm-3
17-01-1993,17:00,62,R,ugm-3
17-01-1993,18:00,60,R,ugm-3
17-01-1993,19:00,64,R,ugm-3
17-01-1993,20:00,62,R,ugm-3
17-01-1993,21:00,58,R,ugm-3
17-01-1993,22:00,62,R,ugm-3
17-01-1993,23:00,62,R,ugm-3
17-01-1993,24:00,60,R,ugm-3
18-01-1993,01:00,60,R,ugm-3
18-01-1993,02:00,60,R,ugm-3
18-01-1993,03:00,60,R,ugm-3
18-01-1993,04:00,66,R,ugm-3
18-01-1993,05:00,62,R,ugm-3
18-01-1993,06:00,58,R,ugm-3
18-01-1993,07:00,44,R,ugm-3
18-01-1993,08:00,46,R,ugm-3
18-01-1993,09:00,54,R,ugm-3
18-01-1993,10:00,60,R,ugm-3
18-01-1993,11:00,66,R,ugm-3
18-01-1993,12:00,64,R,ugm-3
18-01-1993,13:00,66,R,ugm-3
18-01-1993,14:00,,,
18-01-1993,15:00,70,R,ugm-3
18-01-1993,16:00,68,R,ugm-3
18-01-1993,17:00,70,R,ugm-3
18-01-1993,18:00,70,R,ugm-3
18-01-1993,19:00,72,R,ugm-3
18-01-1993,20:00,74,R,ugm-3
18-01-1993,21:00,72,R,ugm-3
18-01-1993,22:00,72,R,ugm-3
18-01-1993,23:00,72,R,ugm-3
18-01-1993,24:00,74,R,ugm-3
19-01-1993,01:00,74,R,ugm-3
19-01-1993,02:00,72,R,ugm-3
19-01-1993,03:00,68,R,ugm-3
19-01-1993,04:00,66,R,ugm-3
19-01-1993,05:00,66,R,ugm-3
19-01-1993,06:00,60,R,ugm-3
19-01-1993,07:00,60,R,ugm-3
19-01-1993,08:00,56,R,ugm-3
19-01-1993,09:00,66,R,ugm-3
19-01-1993,10:00,62,R,ugm-3
19-01-1993,11:00,44,R,ugm-3
19-01-1993,12:00,20,R,ugm-3
19-01-1993,13:00,26,R,ugm-3
19-01-1993,14:00,60,R,ugm-3
19-01-1993,15:00,70,R,ugm-3
19-01-1993,16:00,68,R,ugm-3
19-01-1993,17:00,70,R,ugm-3
19-01-1993,18:00,70,R,ugm-3
19-01-1993,19:00,72,R,ugm-3
19-01-1993,20:00,72,R,ugm-3
19-01-1993,21:00,72,R,ugm-3
19-01-1993,22:00,72,R,ugm-3
19-01-1993,23:00,70,R,ugm-3
19-01-1993,24:00,70,R,ugm-3
20-01-1993,01:00,70,R,ugm-3
20-01-1993,02:00,72,R,ugm-3
20-01-1993,03:00,72,R,ugm-3
20-01-1993,04:00,72,R,ugm-3
20-01-1993,05:00,72,R,ugm-3
20-01-1993,06:00,72,R,ugm-3
20-01-1993,07:00,72,R,ugm-3
20-01-1993,08:00,70,R,ugm-3
20-01-1993,09:00,70,R,ugm-3
20-01-1993,10:00,70,R,ugm-3
20-01-1993,11:00,70,R,ugm-3
20-01-1993,12:00,70,R,ugm-3
20-01-1993,13:00,68,R,ugm-3
20-01-1993,14:00,66,R,ugm-3
20-01-1993,15:00,66,R,ugm-3
20-01-1993,16:00,68,R,ugm-3
20-01-1993,17:00,68,R,ugm-3
20-01-1993,18:00,68,R,ugm-3
20-01-1993,19:00,66,R,ugm-3
20-01-1993,20:00,68,R,ugm-3
20-01-1993,21:00,66,R,ugm-3
20-01-1993,22:00,64,R,ugm-3
20-01-1993,23:00,66,R,ugm-3
20-01-1993,24:00,,,
21-01-1993,01:00,68,R,ugm-3
21-01-1993,02:00,66,R,ugm-3
21-01-1993,03:00,66,R,ugm-3
21-01-1993,04:00,62,R,ugm-3
21-01-1993,05:00,64,R,ugm-3
21-01-1993,06:00,66,R,ugm-3
21-01-1993,07:00,64,R,ugm-3
21-01-1993,08:00,64,R,ugm-3
21-01-1993,09:00,68,R,ugm-3
21-01-1993,10:00,66,R,ugm-3
21-01-1993,11:00,64,R,ugm-3
21-01-1993,12:00,64,R,ugm-3
21-01-1993,13:00,64,R,ugm-3
21-01-1993,14:00,,,
21-01-1993,15:00,64,R,ugm-3
21-01-1993,16:00,64,R,ugm-3
21-01-1993,17:00,64,R,ugm-3
21-01-1993,18:00,64,R,ugm-3
21-01-1993,19:00,62,R,ugm-3
21-01-1993,20:00,62,R,ugm-3
21-01-1993,21:00,62,R,ugm-3
21-01-1993,22:00,62,R,ugm-3
21-01-1993,23:00,62,R,ugm-3
21-01-1993,24:00,68,R,ugm-3
22-01-1993,01:00,72,R,ugm-3
22-01-1993,02:00,72,R,ugm-3
22-01-1993,03:00,68,R,ugm-3
22-01-1993,04:00,68,R,ugm-3
22-01-1993,05:00,68,R,ugm-3
22-01-1993,06:00,66,R,ugm-3
22-01-1993,07:00,66,R,ugm-3
22-01-1993,08:00,64,R,ugm-3
22-01-1993,09:00,62,R,ugm-3
22-01-1993,10:00,56,R,ugm-3
22-01-1993,11:00,62,R,ugm-3
22-01-1993,12:00,64,R,ugm-3
22-01-1993,13:00,64,R,ugm-3
22-01-1993,14:00,,,
22-01-1993,15:00,66,R,ugm-3
22-01-1993,16:00,66,R,ugm-3
22-01-1993,17:00,66,R,ugm-3
22-01-1993,18:00,66,R,ugm-3
22-01-1993,19:00,66,R,ugm-3
22-01-1993,20:00,68,R,ugm-3
22-01-1993,21:00,66,R,ugm-3
22-01-1993,22:00,64,R,ugm-3
22-01-1993,23:00,64,R,ugm-3
22-01-1993,24:00,66,R,ugm-3
23-01-1993,01:00,58,R,ugm-3
23-01-1993,02:00,62,R,ugm-3
23-01-1993,03:00,60,R,ugm-3
23-01-1993,04:00,62,R,ugm-3
23-01-1993,05:00,54,R,ugm-3
23-01-1993,06:00,56,R,ugm-3
23-01-1993,07:00,52,R,ugm-3
23-01-1993,08:00,36,R,ugm-3
23-01-1993,09:00,52,R,ugm-3
23-01-1993,10:00,58,R,ugm-3
23-01-1993,11:00,56,R,ugm-3
23-01-1993,12:00,54,R,ugm-3
23-01-1993,13:00,56,R,ugm-3
23-01-1993,14:00,,,
23-01-1993,15:00,58,R,ugm-3
23-01-1993,16:00,60,R,ugm-3
23-01-1993,17:00,60,R,ugm-3
23-01-1993,18:00,60,R,ugm-3
23-01-1993,19:00,60,R,ugm-3
23-01-1993,20:00,60,R,ugm-3
23-01-1993,21:00,60,R,ugm-3
23-01-1993,22:00,60,R,ugm-3
23-01-1993,23:00,60,R,ugm-3
23-01-1993,24:00,64,R,ugm-3
24-01-1993,01:00,74,R,ugm-3
24-01-1993,02:00,74,R,ugm-3
24-01-1993,03:00,74,R,ugm-3
24-01-1993,04:00,72,R,ugm-3
24-01-1993,05:00,74,R,ugm-3
24-01-1993,06:00,74,R,ugm-3
24-01-1993,07:00,76,R,ugm-3
24-01-1993,08:00,74,R,ugm-3
24-01-1993,09:00,74,R,ugm-3
24-01-1993,10:00,76,R,ugm-3
24-01-1993,11:00,76,R,ugm-3
24-01-1993,12:00,76,R,ugm-3
24-01-1993,13:00,76,R,ugm-3
24-01-1993,14:00,,,
24-01-1993,15:00,74,R,ugm-3
24-01-1993,16:00,74,R,ugm-3
24-01-1993,17:00,72,R,ugm-3
24-01-1993,18:00,74,R,ugm-3
24-01-1993,19:00,72,R,ugm-3
24-01-1993,20:00,72,R,ugm-3
24-01-1993,21:00,74,R,ugm-3
24-01-1993,22:00,74,R,ugm-3
24-01-1993,23:00,72,R,ugm-3
24-01-1993,24:00,70,R,ugm-3
25-01-1993,01:00,74,R,ugm-3
25-01-1993,02:00,74,R,ugm-3
25-01-1993,03:00,72,R,ugm-3
25-01-1993,04:00,72,R,ugm-3
25-01-1993,05:00,72,R,ugm-3
25-01-1993,06:00,70,R,ugm-3
25-01-1993,07:00,72,R,ugm-3
25-01-1993,08:00,72,R,ugm-3
25-01-1993,09:00,72,R,ugm-3
25-01-1993,10:00,70,R,ugm-3
25-01-1993,11:00,68,R,ugm-3
25-01-1993,12:00,68,R,ugm-3
25-01-1993,13:00,70,R,ugm-3
25-01-1993,14:00,68,R,ugm-3
25-01-1993,15:00,68,R,ugm-3
25-01-1993,16:00,66,R,ugm-3
25-01-1993,17:00,66,R,ugm-3
25-01-1993,18:00,64,R,ugm-3
25-01-1993,19:00,62,R,ugm-3
25-01-1993,20:00,62,R,ugm-3
25-01-1993,21:00,58,R,ugm-3
25-01-1993,22:00,56,R,ugm-3
25-01-1993,23:00,50,R,ugm-3
25-01-1993,24:00,52,R,ugm-3
26-01-1993,01:00,48,R,ugm-3
26-01-1993,02:00,42,R,ugm-3
26-01-1993,03:00,46,R,ugm-3
26-01-1993,04:00,48,R,ugm-3
26-01-1993,05:00,44,R,ugm-3
26-01-1993,06:00,54,R,ugm-3
26-01-1993,07:00,62,R,ugm-3
26-01-1993,08:00,60,R,ugm-3
26-01-1993,09:00,60,R,ugm-3
26-01-1993,10:00,62,R,ugm-3
26-01-1993,11:00,62,R,ugm-3
26-01-1993,12:00,62,R,ugm-3
26-01-1993,13:00,60,R,ugm-3
26-01-1993,14:00,62,R,ugm-3
26-01-1993,15:00,62,R,ugm-3
26-01-1993,16:00,58,R,ugm-3
26-01-1993,17:00,62,R,ugm-3
26-01-1993,18:00,64,R,ugm-3
26-01-1993,19:00,68,R,ugm-3
26-01-1993,20:00,64,R,ugm-3
26-01-1993,21:00,68,R,ugm-3
26-01-1993,22:00,68,R,ugm-3
26-01-1993,23:00,68,R,ugm-3
26-01-1993,24:00,68,R,ugm-3
27-01-1993,01:00,68,R,ugm-3
27-01-1993,02:00,68,R,ugm-3
27-01-1993,03:00,70,R,ugm-3
27-01-1993,04:00,70,R,ugm-3
27-01-1993,05:00,68,R,ugm-3
27-01-1993,06:00,68,R,ugm-3
27-01-1993,07:00,72,R,ugm-3
27-01-1993,08:00,72,R,ugm-3
27-01-1993,09:00,72,R,ugm-3
27-01-1993,10:00,70,R,ugm-3
27-01-1993,11:00,72,R,ugm-3
27-01-1993,12:00,72,R,ugm-3
27-01-1993,13:00,72,R,ugm-3
27-01-1993,14:00,,,
27-01-1993,15:00,70,R,ugm-3
27-01-1993,16:00,70,R,ugm-3
27-01-1993,17:00,66,R,ugm-3
27-01-1993,18:00,64,R,ugm-3
27-01-1993,19:00,64,R,ugm-3
27-01-1993,20:00,62,R,ugm-3
27-01-1993,21:00,58,R,ugm-3
27-01-1993,22:00,60,R,ugm-3
27-01-1993,23:00,56,R,ugm-3
27-01-1993,24:00,58,R,ugm-3
28-01-1993,01:00,58,R,ugm-3
28-01-1993,02:00,58,R,ugm-3
28-01-1993,03:00,60,R,ugm-3
28-01-1993,04:00,62,R,ugm-3
28-01-1993,05:00,64,R,ugm-3
28-01-1993,06:00,64,R,ugm-3
28-01-1993,07:00,66,R,ugm-3
28-01-1993,08:00,64,R,ugm-3
28-01-1993,09:00,60,R,ugm-3
28-01-1993,10:00,60,R,ugm-3
28-01-1993,11:00,58,R,ugm-3
28-01-1993,12:00,62,R,ugm-3
28-01-1993,13:00,62,R,ugm-3
28-01-1993,14:00,,,
28-01-1993,15:00,60,R,ugm-3
28-01-1993,16:00,62,R,ugm-3
28-01-1993,17:00,60,R,ugm-3
28-01-1993,18:00,58,R,ugm-3
28-01-1993,19:00,58,R,ugm-3
28-01-1993,20:00,52,R,ugm-3
28-01-1993,21:00,36,R,ugm-3
28-01-1993,22:00,30,R,ugm-3
28-01-1993,23:00,24,R,ugm-3
28-01-1993,24:00,22,R,ugm-3
29-01-1993,01:00,26,R,ugm-3
29-01-1993,02:00,30,R,ugm-3
29-01-1993,03:00,30,R,ugm-3
29-01-1993,04:00,28,R,ugm-3
29-01-1993,05:00,28,R,ugm-3
29-01-1993,06:00,36,R,ugm-3
29-01-1993,07:00,42,R,ugm-3
29-01-1993,08:00,28,R,ugm-3
29-01-1993,09:00,30,R,ugm-3
29-01-1993,10:00,40,R,ugm-3
29-01-1993,11:00,46,R,ugm-3
29-01-1993,12:00,54,R,ugm-3
29-01-1993,13:00,38,R,ugm-3
29-01-1993,14:00,,,
29-01-1993,15:00,18,R,ugm-3
29-01-1993,16:00,16,R,ugm-3
29-01-1993,17:00,8,R,ugm-3
29-01-1993,18:00,4,R,ugm-3
29-01-1993,19:00,4,R,ugm-3
29-01-1993,20:00,4,R,ugm-3
29-01-1993,21:00,4,R,ugm-3
29-01-1993,22:00,8,R,ugm-3
29-01-1993,23:00,14,R,ugm-3
29-01-1993,24:00,10,R,ugm-3
30-01-1993,01:00,18,R,ugm-3
30-01-1993,02:00,24,R,ugm-3
30-01-1993,03:00,24,R,ugm-3
30-01-1993,04:00,32,R,ugm-3
30-01-1993,05:00,28,R,ugm-3
30-01-1993,06:00,16,R,ugm-3
30-01-1993,07:00,6,R,ugm-3
30-01-1993,08:00,2,R,ugm-3
30-01-1993,09:00,8,R,ugm-3
30-01-1993,10:00,16,R,ugm-3
30-01-1993,11:00,18,R,ugm-3
30-01-1993,12:00,16,R,ugm-3
30-01-1993,13:00,18,R,ugm-3
30-01-1993,14:00,,,
30-01-1993,15:00,26,R,ugm-3
30-01-1993,16:00,24,R,ugm-3
30-01-1993,17:00,20,R,ugm-3
30-01-1993,18:00,8,R,ugm-3
30-01-1993,19:00,6,R,ugm-3
30-01-1993,20:00,10,R,ugm-3
30-01-1993,21:00,14,R,ugm-3
30-01-1993,22:00,20,R,ugm-3
30-01-1993,23:00,24,R,ugm-3
30-01-1993,24:00,20,R,ugm-3
31-01-1993,01:00,20,R,ugm-3
31-01-1993,02:00,20,R,ugm-3
31-01-1993,03:00,20,R,ugm-3
31-01-1993,04:00,22,R,ugm-3
31-01-1993,05:00,20,R,ugm-3
31-01-1993,06:00,16,R,ugm-3
31-01-1993,07:00,16,R,ugm-3
31-01-1993,08:00,22,R,ugm-3
31-01-1993,09:00,30,R,ugm-3
31-01-1993,10:00,32,R,ugm-3
31-01-1993,11:00,30,R,ugm-3
31-01-1993,12:00,32,R,ugm-3
31-01-1993,13:00,34,R,ugm-3
31-01-1993,14:00,32,R,ugm-3
31-01-1993,15:00,26,R,ugm-3
31-01-1993,16:00,22,R,ugm-3
31-01-1993,17:00,16,R,ugm-3
31-01-1993,18:00,14,R,ugm-3
31-01-1993,19:00,20,R,ugm-3
31-01-1993,20:00,22,R,ugm-3
31-01-1993,21:00,20,R,ugm-3
31-01-1993,22:00,18,R,ugm-3
31-01-1993,23:00,14,R,ugm-3
31-01-1993,24:00,6,R,ugm-3
01-02-1993,01:00,4,R,ugm-3
01-02-1993,02:00,2,R,ugm-3
01-02-1993,03:00,4,R,ugm-3
01-02-1993,04:00,6,R,ugm-3
01-02-1993,05:00,4,R,ugm-3
01-02-1993,06:00,2,R,ugm-3
01-02-1993,07:00,2,R,ugm-3
01-02-1993,08:00,4,R,ugm-3
01-02-1993,09:00,10,R,ugm-3
01-02-1993,10:00,12,R,ugm-3
01-02-1993,11:00,16,R,ugm-3
01-02-1993,12:00,16,R,ugm-3
01-02-1993,13:00,12,R,ugm-3
01-02-1993,14:00,14,R,ugm-3
01-02-1993,15:00,10,R,ugm-3
01-02-1993,16:00,12,R,ugm-3
01-02-1993,17:00,10,R,ugm-3
01-02-1993,18:00,10,R,ugm-3
01-02-1993,19:00,20,R,ugm-3
01-02-1993,20:00,22,R,ugm-3
01-02-1993,21:00,20,R,ugm-3
01-02-1993,22:00,18,R,ugm-3
01-02-1993,23:00,12,R,ugm-3
01-02-1993,24:00,10,R,ugm-3
02-02-1993,01:00,,,
02-02-1993,02:00,,,
02-02-1993,03:00,,,
02-02-1993,04:00,,,
02-02-1993,05:00,,,
02-02-1993,06:00,,,
02-02-1993,07:00,,,
02-02-1993,08:00,,,
02-02-1993,09:00,,,
02-02-1993,10:00,,,
02-02-1993,11:00,,,
02-02-1993,12:00,,,
02-02-1993,13:00,,,
02-02-1993,14:00,,,
02-02-1993,15:00,,,
02-02-1993,16:00,,,
02-02-1993,17:00,,,
02-02-1993,18:00,,,
02-02-1993,19:00,,,
02-02-1993,20:00,,,
02-02-1993,21:00,,,
02-02-1993,22:00,,,
02-02-1993,23:00,,,
02-02-1993,24:00,,,
03-02-1993,01:00,,,
03-02-1993,02:00,,,
03-02-1993,03:00,,,
03-02-1993,04:00,,,
03-02-1993,05:00,,,
03-02-1993,06:00,,,
03-02-1993,07:00,,,
03-02-1993,08:00,,,
03-02-1993,09:00,,,
03-02-1993,10:00,,,
03-02-1993,11:00,,,
03-02-1993,12:00,,,
03-02-1993,13:00,,,
03-02-1993,14:00,,,
03-02-1993,15:00,,,
03-02-1993,16:00,,,
03-02-1993,17:00,,,
03-02-1993,18:00,,,
03-02-1993,19:00,,,
03-02-1993,20:00,,,
03-02-1993,21:00,,,
03-02-1993,22:00,,,
03-02-1993,23:00,,,
03-02-1993,24:00,,,
04-02-1993,01:00,,,
04-02-1993,02:00,,,
04-02-1993,03:00,,,
04-02-1993,04:00,,,
04-02-1993,05:00,,,
04-02-1993,06:00,,,
04-02-1993,07:00,,,
04-02-1993,08:00,,,
04-02-1993,09:00,,,
04-02-1993,10:00,,,
04-02-1993,11:00,,,
04-02-1993,12:00,,,
04-02-1993,13:00,,,
04-02-1993,14:00,,,
04-02-1993,15:00,,,
04-02-1993,16:00,,,
04-02-1993,17:00,,,
04-02-1993,18:00,,,
04-02-1993,19:00,,,
04-02-1993,20:00,,,
04-02-1993,21:00,,,
04-02-1993,22:00,,,
04-02-1993,23:00,,,
04-02-1993,24:00,,,
05-02-1993,01:00,,,
05-02-1993,02:00,,,
05-02-1993,03:00,,,
05-02-1993,04:00,,,
05-02-1993,05:00,,,
05-02-1993,06:00,,,
05-02-1993,07:00,,,
05-02-1993,08:00,,,
05-02-1993,09:00,,,
05-02-1993,10:00,,,
05-02-1993,11:00,,,
05-02-1993,12:00,,,
05-02-1993,13:00,,,
05-02-1993,14:00,,,
05-02-1993,15:00,,,
05-02-1993,16:00,,,
05-02-1993,17:00,,,
05-02-1993,18:00,,,
05-02-1993,19:00,,,
05-02-1993,20:00,,,
05-02-1993,21:00,,,
05-02-1993,22:00,,,
05-02-1993,23:00,,,
05-02-1993,24:00,,,
06-02-1993,01:00,,,
06-02-1993,02:00,,,
06-02-1993,03:00,,,
06-02-1993,04:00,,,
06-02-1993,05:00,,,
06-02-1993,06:00,,,
06-02-1993,07:00,,,
06-02-1993,08:00,,,
06-02-1993,09:00,,,
06-02-1993,10:00,,,
06-02-1993,11:00,,,
06-02-1993,12:00,,,
06-02-1993,13:00,,,
06-02-1993,14:00,,,
06-02-1993,15:00,,,
06-02-1993,16:00,,,
06-02-1993,17:00,,,
06-02-1993,18:00,,,
06-02-1993,19:00,,,
06-02-1993,20:00,,,
06-02-1993,21:00,,,
06-02-1993,22:00,,,
06-02-1993,23:00,,,
06-02-1993,24:00,,,
07-02-1993,01:00,,,
07-02-1993,02:00,,,
07-02-1993,03:00,,,
07-02-1993,04:00,,,
07-02-1993,05:00,,,
07-02-1993,06:00,,,
07-02-1993,07:00,,,
07-02-1993,08:00,,,